METEOR 2-17 DEB, 28989

Orbit data source: Space-Track

METEOR 2-17 DEB, 28989 is space debris in LEO originally from a launch on Sat, 30 Jan 1988 UTC launched from the Plesetsk Missile And Space Complex (PKMTR). Debris objects in space refer to the collection of defunct objects orbiting the Earth. Examples of debris include non-operational satellites, rocket bodies, and fragments generated from explosions, collisions, or faulty payload assembly.

Loading next visibility...
Identifier
28989, 1988-005D
Orbit
LEO
Country
Flag of CISCIS
Related business
Manufacturer
Unknown
Mission
Spacecraft
Bus & Motor
Unknown
Mass
Unknown
Launch date (UTC)
1988-01-30 (38 years ago)
Launch vehicle
Unknown
Launch site
Plesetsk Missile And Space Complex (PKMTR)
Object type
Payload
Rocket body
Debris
Shape & HBR
Unknown shape, 0.1 m
Radar Cross Section
Small (<0.1 m²)

Expand to show TLE details & history
Last TLE update: 4 days ago

TLE from 4 days ago
0 METEOR 2-17 DEB
1 28989U 88005D   25303.57433859  .00005254  00000-0  28051-2 0  9998
2 28989  82.5258  44.1267 0029235  10.9797 349.2011 14.12877094628386
Epoch: 2025-10-30T13:47Z
TLE epoch observation values (Epoch: 2025-10-30T13:47:02.854Z)
Latitude
0.00004°
Longitude
158.23364°
Altitude
831.727 km
Speed
7.448 km/s
True Right ascension
02h 56m 30s
True Declination
0° 00' 00"
Sunlit
Object was in full shadow at epoch
Visualization orbit readout
Latitude
Unknown
Longitude
Unknown
Altitude
Unknown
Speed
Unknown
Apparent Right ascension
Unknown
Apparent Declination
Unknown
Sunlit
N/A
Visualization observer readout
Local Sidereal Time
23:52:36
Azimuth
Unknown
Elevation
Unknown
Doppler factor
Unknown
Orbital elements
Apogee altitude
867.778 km
Perigee altitude
825.535 km
Semi-major axis
7,224.793 km
Eccentricity
0.00292
Inclination
82.5258°
RAAN
44.1267°
Arg. of periapsis
10.9797°
True anomaly
349.13811°
Mean anomaly
349.2011°
Eccentric anomaly
349.16963°
Mean motion
3.53431 °/min
Orbital period
101.86 mins
BSTAR
0.0028051
Loading maneuver chart data...
Computing Atmospheric mass density...
Loading historical data...
Loading historical data...
Loading historical data...
Loading historical data...
Loading historical data...
Loading historical data...
Loading historical data...

Documentation

Showing up to 5 results
|